カタログに戻る

DELTA 1 DEB

運用中PO
NORAD 21514·DEBRIS·🇺🇸 United States

打ち上げ Jun 12, 1975 から Vandenberg Space Force Base

Loading…

次のパス (今後24時間)

TLE

最新Source: Space-Track

元期: Sep 14, 2026, 08:35 UTC

1 21514U 75052GK  26257.35779969  .00000754  00000-0  16603-2 0  9993
2 21514  99.8464 284.9036 0305365  23.2981 351.2990 13.15685622674065

AllMySatでDELTA 1 DEBをリアルタイム追跡

Download on the App Store